Meath Environmental Platform

Observations for Trim Market St

Time AQI Temp °C Hum % Pres Pa CO μg/m³ H₂S μg/m³ NO μg/m³ NO₂ μg/m³ O₃ μg/m³ SO₂ μg/m³ PM1 μg/m³ PM2.5 μg/m³ PM10 μg/m³
Wednesday 26 August 2026
02:01 2 16.6 85 2,147,483,647 0.3 0 1.59 14.9 34.17 0 5.7 6.27 9.68
01:54 2 16.6 85 2,147,483,647 0.32 0 1.41 20.08 37.5 0 5.7 6.99 12.37
01:49 2 16.6 85 2,147,483,647 0.32 0 1.71 16.15 35.55 0 6.41 6.99 11.83
01:48 2 16.6 85 2,147,483,647 0.31 0 1.71 16.15 35.54 0 4.99 6.53 10.22
01:47 2 16.6 85 2,147,483,647 0.32 0 1.52 14.91 36.13 0 7.84 7.92 12.91
01:46 2 16.6 85 2,147,483,647 0.31 0 1.43 14.2 33.63 0 5.7 6.99 11.3
01:45 2 16.6 85 2,147,483,647 0.32 0 1.41 20.96 38.76 0 7.13 7.84 10.22
01:44 2 16.6 85 2,147,483,647 0.32 0 1.22 18.07 34.78 0 6.41 6.99 11.83
01:43 2 16.6 85 2,147,483,647 0.32 0 1.19 14.63 34.37 0 5.7 6.53 10.76
01:40 2 16.6 85 2,147,483,647 0.32 0 1.49 15.39 30.56 0 6.41 7.93 11.84
01:39 2 16.6 85 2,147,483,647 0.32 0 1.47 17.1 32.16 0 6.41 6.54 10.22
01:37 2 16.6 85 2,147,483,647 0.33 0 1.64 15.24 29.23 0 5.7 6.27 9.69
01:34 2 16.6 85 2,147,483,647 0.33 0 1.6 15.07 36.09 0 7.13 7.93 12.91
01:33 2 16.6 85 2,147,483,647 0.32 0 1.6 15.24 35.09 0 5.7 7 11.3
01:28 2 16.6 85 2,147,483,647 0.33 0 1.26 16.18 35.58 0 4.28 5.61 10.22
01:22 2 16.6 85 2,147,483,647 0.35 0 1.29 15.59 31.86 0 7.13 7.94 11.84
01:19 2 16.6 85 2,147,483,647 0.33 0 1.44 17.12 32.4 0 5.7 6.54 11.3
01:18 2 16.6 85 2,147,483,647 0.33 0 1.44 17.77 34.1 0 5.7 6.27 9.15
01:17 2 16.6 85 2,147,483,647 0.33 0 1.44 14.77 31.87 0 5.7 6.27 9.69
01:16 2 16.6 85 2,147,483,647 0.33 0 1.3 14.92 33.67 0 6.41 8.4 13.46